Weather History for Ocean City, MD

Change the Weather History Date:

Monday, April 1, 2013

  Actual Average (KSBY) Record (KSBY)
Temperature  
Mean Temperature 52 °F 50 °F  
Max Temperature 66 °F 60 °F 83 °F (1978)
Min Temperature 39 °F 39 °F 15 °F (1923)
Degree Days  
Heating Degree Days 12 16  
Month to date heating degree days 16  
Since 1 July heating degree days 3951  
Cooling Degree Days 0 0  
Month to date cooling degree days 0  
Year to date cooling degree days 2  
Growing Degree Days 2 (Base 50)    
Moisture  
Dew Point 44 °F    
Average Humidity 86    
Maximum Humidity 100    
Minimum Humidity 37    
Precipitation  
Precipitation 0.03 in 0.14 in 1.23 in (1948)
Month to date precipitation 0.14  
Year to date precipitation 11.52  
Snow  
Snow 0.00 in 0.00 in 0.50 in (1997)
Month to date snowfall 0.0  
Since 1 July snowfall 9.1  
Snow Depth -    
Sea Level Pressure  
Sea Level Pressure 29.80 in    
Wind  
Wind Speed 5 mph (WSW)    
Max Wind Speed 15 mph    
Max Gust Speed 24 mph    
Visibility 5 miles    
Events Fog    
T = Trace of Precipitation, MM = Missing Value Source: NWS Daily Summary

Daily Weather History Graph

Daily Weather History Graph

Search for Another Location

Airport:

Trip Planner

Search our weather history database for the weather conditions in past years. The results will help you decide how hot, cold, wet, or windy it might be!

Date:

Astronomy

Apr. 01, 2013 Rise Set
Actual Time 6:45 AM EDT 7:23 PM EDT
Civil Twilight 6:18 AM EDT 7:50 PM EDT
Nautical Twilight 5:47 AM EDT 8:22 PM EDT
Astronomical Twilight 5:14 AM EDT 8:54 PM EDT
Moon 12:26 AM EDT (4/1) 10:33 AM EDT (4/1)
Length of Visible Light 13h 32m
Length of Day
12h 38m
Waning Gibbous, 67% of the Moon is Illuminated
Apr 1
Waning Gibbous
Apr 3
Last Quarter
Apr 10
New
Apr 18
First Quarter
Apr 25
Full

Hourly Weather History & Observations

Time (EDT) Temp. Windchill Dew Point Humidity Pressure Visibility Wind Dir Wind Speed Gust Speed Precip Events Conditions
12:53 AM 51.1 °F - 50.0 °F 96% 29.78 in 6.0 mi WNW 5.8 mph - N/A   Mostly Cloudy
1:53 AM 51.1 °F - 50.0 °F 96% 29.78 in 6.0 mi NW 3.5 mph - N/A   Mostly Cloudy
2:53 AM 50.0 °F - 48.9 °F 96% 29.79 in 5.0 mi Calm Calm - N/A   Partly Cloudy
3:42 AM 46.4 °F 44.3 °F 46.4 °F 100% 29.79 in 1.8 mi SSW 4.6 mph - N/A   Partly Cloudy
3:53 AM 46.9 °F - 46.9 °F 100% 29.78 in 1.5 mi South 5.8 mph - N/A   Mostly Cloudy
4:03 AM 48.2 °F - 48.2 °F 100% 29.78 in 2.5 mi SSW 6.9 mph - N/A   Overcast
4:12 AM 46.4 °F 44.3 °F 46.4 °F 100% 29.78 in 3.0 mi SSW 4.6 mph - N/A   Overcast
4:22 AM 46.4 °F 44.3 °F 46.4 °F 100% 29.78 in 2.5 mi SSW 4.6 mph - N/A   Overcast
4:43 AM 46.4 °F - 46.4 °F 100% 29.78 in 0.8 mi Calm Calm - N/A   Mostly Cloudy
4:50 AM 44.6 °F - 44.6 °F 100% 29.78 in 0.2 mi Calm Calm - N/A Fog Fog
4:53 AM 45.0 °F - 45.0 °F 100% 29.78 in 0.2 mi Calm Calm - N/A Fog Fog
5:53 AM 39.0 °F - 39.0 °F 100% 29.77 in 0.2 mi Calm Calm - N/A Fog Fog
6:53 AM 39.0 °F - 39.0 °F 100% 29.78 in 0.2 mi Calm Calm - N/A Fog Fog
7:17 AM 39.2 °F - 39.2 °F 100% 29.80 in 0.2 mi Calm Calm - N/A Fog Fog
7:24 AM 42.8 °F - 42.8 °F 100% 29.80 in 0.8 mi Calm Calm - N/A   Overcast
7:32 AM 42.8 °F - 42.8 °F 100% 29.80 in 1.2 mi Calm Calm - N/A   Overcast
8:17 AM 48.2 °F - 48.2 °F 100% 29.81 in 2.5 mi Calm Calm - N/A   Scattered Clouds
8:29 AM 50.0 °F - 50.0 °F 100% 29.81 in 3.0 mi SW 3.5 mph - N/A   Partly Cloudy
8:53 AM 48.9 °F - 48.9 °F 100% 29.81 in 3.0 mi South 4.6 mph - N/A   Mostly Cloudy
9:53 AM 52.0 °F - 50.0 °F 93% 29.81 in 6.0 mi South 4.6 mph - N/A   Clear
10:53 AM 55.0 °F - 52.0 °F 89% 29.80 in 7.0 mi SSW 4.6 mph - N/A   Partly Cloudy
11:53 AM 57.0 °F - 53.1 °F 87% 29.79 in 6.0 mi South 6.9 mph - N/A   Partly Cloudy
12:53 PM 57.9 °F - 53.1 °F 84% 29.76 in 7.0 mi South 8.1 mph - N/A   Partly Cloudy
1:53 PM 55.9 °F - 51.1 °F 84% 29.75 in 7.0 mi South 10.4 mph 18.4 mph N/A   Partly Cloudy
2:53 PM 55.0 °F - 50.0 °F 83% 29.73 in 8.0 mi SSW 9.2 mph 16.1 mph N/A   Clear
3:53 PM 66.0 °F - 39.0 °F 37% 29.70 in 10.0 mi West 13.8 mph 21.9 mph N/A   Scattered Clouds
4:53 PM 57.0 °F - 45.0 °F 64% 29.71 in 10.0 mi SSW 8.1 mph - N/A   Overcast
5:53 PM 57.0 °F - 46.9 °F 69% 29.75 in 10.0 mi NW 9.2 mph - 0.01 in   Overcast
6:53 PM 54.0 °F - 44.1 °F 69% 29.79 in 10.0 mi NNW 11.5 mph 18.4 mph 0.02 in   Overcast
7:53 PM 53.1 °F - 37.9 °F 57% 29.83 in 10.0 mi NW 12.7 mph 18.4 mph N/A   Mostly Cloudy
8:53 PM 50.0 °F - 35.1 °F 57% 29.87 in 10.0 mi NNW 6.9 mph - N/A   Partly Cloudy
9:53 PM 48.0 °F - 30.0 °F 50% 29.91 in 10.0 mi NNW 15.0 mph 24.2 mph N/A   Clear
10:53 PM 46.0 °F 40.2 °F 27.0 °F 47% 29.93 in 10.0 mi NNW 12.7 mph - N/A   Partly Cloudy
11:53 PM 43.0 °F 39.5 °F 26.1 °F 51% 29.94 in 10.0 mi NNW 5.8 mph - N/A   Clear